Location: Newark
(33.6439°N, 114.9881°W)
Time: 04:21:04
(UTC+00:00)

Explorer 7 - All Passes

Search period start: 23 August 2019 00:00
Search period end: 02 September 2019 00:00
Orbit: 485 x 680 km, 50.3° (Epoch: 21 August)

Date Brightness Start Highest point End Pass type
(mag) Time Alt. Az. Time Alt. Az. Time Alt. Az.
23 Aug - 00:14:40 10° WNW 00:18:39 47° SW 00:22:23 10° SSE daylight
23 Aug - 14:14:31 10° SE 14:16:03 11° SE 14:17:35 10° ESE daylight
23 Aug - 15:51:14 10° SW 15:56:07 82° SE 16:00:54 10° NE daylight
23 Aug - 17:33:26 10° WNW 17:37:10 22° NNW 17:40:47 10° NNE daylight
23 Aug - 20:59:55 10° N 21:01:33 12° NNE 21:03:09 10° NE daylight
23 Aug - 22:39:10 10° NW 22:43:10 37° NE 22:46:56 10° ESE daylight
24 Aug - 00:20:08 10° WNW 00:23:32 25° SW 00:26:47 10° S daylight
24 Aug - 14:17:18 10° S 14:20:53 20° SE 14:24:25 10° E daylight
24 Aug - 15:56:20 10° WSW 16:01:11 62° NW 16:05:55 10° NE daylight
24 Aug - 17:39:29 10° WNW 17:42:31 16° NNW 17:45:29 10° NNE daylight
24 Aug - 21:04:26 10° NNW 21:07:01 15° NNE 21:09:31 10° ENE daylight
24 Aug - 22:44:04 10° NW 22:48:20 63° NE 22:52:18 10° ESE daylight
25 Aug - 00:26:15 10° W 00:28:21 14° SW 00:30:23 10° SSW daylight
25 Aug - 14:21:20 10° SSW 14:25:44 34° SE 14:30:07 10° ENE daylight
25 Aug - 16:01:43 10° WSW 16:06:19 40° NW 16:10:49 10° NE daylight
25 Aug - 17:45:44 10° NW 17:47:57 13° NNW 17:50:09 10° NNE daylight
25 Aug - 21:09:04 10° NNW 21:12:24 20° NNE 21:15:34 10° ENE daylight
25 Aug - 22:49:06 10° NW 22:53:22 73° SW 22:57:22 10° SE daylight
26 Aug - 14:25:52 10° SSW 14:30:41 58° SE 14:35:27 10° NE daylight
26 Aug - 16:07:22 10° W 16:11:33 27° NNW 16:15:38 10° NNE daylight
26 Aug - 17:52:10 10° NNW 17:53:27 11° N 17:54:44 10° N daylight
26 Aug - 19:34:38 10° N 19:35:52 11° N 19:37:05 10° NNE daylight
26 Aug - 21:13:49 10° NNW 21:17:42 29° NNE 21:21:21 10° E daylight
26 Aug - 22:54:21 10° WNW 22:58:19 39° SW 23:02:03 10° SSE daylight
27 Aug - 12:53:03 10° SSE 12:55:33 14° SE 12:58:04 10° E daylight
27 Aug - 14:30:46 10° SW 14:35:41 85° NW 14:40:33 10° NE daylight
27 Aug - 16:13:15 10° WNW 16:16:51 20° NNW 16:20:24 10° NNE daylight
27 Aug - 19:39:07 10° NNW 19:41:22 13° NNE 19:43:33 10° NE daylight
27 Aug - 21:18:39 10° NW 21:22:55 45° NE 21:26:54 10° ESE daylight
27 Aug - 22:59:56 10° WNW 23:03:11 21° SW 23:06:17 10° S daylight
28 Aug - 12:56:28 10° S 13:00:23 24° SE 13:04:18 10° ENE daylight
28 Aug - 14:35:58 10° WSW 14:40:46 53° NW 14:45:32 10° NE daylight
28 Aug - 16:19:20 10° WNW 16:22:15 16° NNW 16:25:07 10° NNE daylight
28 Aug - 19:43:44 10° NNW 19:46:47 17° NNE 19:49:44 10° ENE daylight
28 Aug - 21:23:35 10° NW 21:28:01 77° NE 21:32:09 10° SE daylight
28 Aug - 23:06:28 10° WSW 23:07:57 12° SW 23:09:25 10° SW daylight
29 Aug - 13:00:41 10° SSW 13:05:16 41° SE 13:09:51 10° ENE daylight
29 Aug - 14:41:26 10° W 14:45:56 35° NNW 14:50:24 10° NNE daylight
29 Aug - 16:25:35 10° NW 16:27:43 13° NNW 16:29:49 10° NNE daylight
29 Aug - 18:09:13 10° N 18:10:07 10° N 18:11:01 10° NNE daylight
29 Aug - 19:48:28 10° NNW 19:52:09 24° NNE 19:55:40 10° E daylight
29 Aug - 21:28:41 10° NW 21:33:02 60° SW 21:37:06 10° SE daylight
30 Aug - 13:05:21 10° SW 13:10:13 69° SE 13:15:06 10° NE daylight
30 Aug - 14:47:09 10° W 14:51:12 25° NNW 14:55:12 10° NNE daylight
30 Aug - 16:31:57 10° NNW 16:33:14 11° N 16:34:31 10° N daylight
30 Aug - 18:13:46 10° N 18:15:39 12° NNE 18:17:31 10° NE daylight
30 Aug - 19:53:15 10° NNW 19:57:26 34° NNE 20:01:22 10° E daylight
30 Aug - 21:34:00 10° WNW 21:37:57 33° SW 21:41:40 10° SSE daylight
31 Aug - 11:31:59 10° SSE 11:35:03 17° SE 11:38:09 10° E visible
31 Aug - 13:10:21 10° SW 13:15:15 73° NW 13:20:09 10° NE daylight
31 Aug - 14:53:05 10° WNW 14:56:33 19° NNW 14:59:58 10° NNE daylight
31 Aug - 16:38:15 10° N 16:38:47 10° N 16:39:18 10° N daylight
31 Aug - 18:18:24 10° NNW 18:21:08 15° NNE 18:23:47 10° NE daylight
31 Aug - 19:58:07 10° NW 20:02:36 55° NE 20:06:48 10° ESE daylight
31 Aug - 21:39:44 10° W 21:42:47 18° SW 21:45:41 10° S daylight
01 Sep - 11:35:44 10° S 11:39:52 29° SE 11:44:05 10° ENE visible
01 Sep - 13:15:39 10° WSW 13:20:22 46° NW 13:25:05 10° NE daylight
01 Sep - 14:59:12 10° NW 15:01:58 15° NNW 15:04:42 10° NNE daylight
01 Sep - 16:43:36 10° N 16:44:21 10° N 16:45:07 10° NNE daylight
01 Sep - 18:23:06 10° NNW 18:26:32 20° NNE 18:29:51 10° ENE daylight
01 Sep - 20:03:06 10° NW 20:07:41 88° SW 20:11:57 10° SE daylight
